• En España
  • Lista de países
  • Para 7 días
  • Temperatura del agua
  • Mapa Satelital
  • El tiempo en el mapa
  • Informadores
  • user-avatar
    Iniciar sesión

    Tiempo cada hora Hrodna

    Hoy, 21 Octubre, Domingo

    Tiempo Temperatura Precipitaciones Viento Presión Humedad
    00:00 +7°C° 0 mm 1 mps 757 mmHg 81%
    01:00 +5°C° 0 mm 0 mps 757 mmHg 83%
    02:00 +5°C° 0 mm 0 mps 757 mmHg 85%
    03:00 +6°C° 0 mm 1 mps 757 mmHg 86%
    04:00 +5°C° 0 mm 1 mps 758 mmHg 88%
    05:00 +5°C° 0 mm 1 mps 758 mmHg 89%
    06:00 +5°C° 0 mm 1 mps 758 mmHg 89%
    07:00 +5°C° 0 mm 1 mps 758 mmHg 89%
    08:00 +6°C° 0 mm 1 mps 759 mmHg 87%
    09:00 +7°C° 0 mm 1 mps 759 mmHg 81%
    10:00 +9°C° 0 mm 1 mps 759 mmHg 74%
    11:00 +11°C° 0 mm 1 mps 759 mmHg 68%
    12:00 +11°C° 0 mm 1 mps 759 mmHg 65%
    13:00 +12°C° 0 mm 1 mps 759 mmHg 62%
    14:00 +13°C° 0 mm 1 mps 759 mmHg 59%
    15:00 +12°C° 0 mm 1 mps 759 mmHg 62%
    16:00 +11°C° 0 mm 1 mps 759 mmHg 65%
    17:00 +11°C° 0 mm 1 mps 759 mmHg 68%
    18:00 +10°C° 0 mm 1 mps 759 mmHg 70%
    19:00 +10°C° 0 mm 1 mps 759 mmHg 72%
    20:00 +8°C° 0 mm 0 mps 759 mmHg 73%
    21:00 +9°C° 0 mm 1 mps 759 mmHg 75%
    22:00 +8°C° 0 mm 1 mps 759 mmHg 77%
    23:00 +8°C° 0 mm 1 mps 760 mmHg 80%

    Mañana, 22 Octubre, Lunes

    Tiempo Temperatura Precipitaciones Viento Presión Humedad
    00:00 +7°C° 0 mm 1 mps 759 mmHg 82%
    01:00 +6°C° 0 mm 2 mps 759 mmHg 84%
    02:00 +5°C° 0 mm 2 mps 759 mmHg 86%
    03:00 +5°C° 0 mm 2 mps 759 mmHg 87%
    04:00 +5°C° 0 mm 2 mps 758 mmHg 88%
    05:00 +4°C° 0 mm 2 mps 758 mmHg 90%
    06:00 +4°C° 0 mm 2 mps 758 mmHg 89%
    07:00 +4°C° 0 mm 3 mps 758 mmHg 89%
    08:00 +4°C° 0 mm 3 mps 758 mmHg 88%
    09:00 +5°C° 0 mm 3 mps 757 mmHg 81%
    10:00 +7°C° 0 mm 4 mps 757 mmHg 74%
    11:00 +10°C° 0 mm 4 mps 757 mmHg 67%
    12:00 +11°C° 0 mm 4 mps 756 mmHg 64%
    13:00 +10°C° 0 mm 5 mps 755 mmHg 61%
    14:00 +12°C° 0 mm 5 mps 755 mmHg 59%
    15:00 +10°C° 0 mm 5 mps 754 mmHg 61%
    16:00 +11°C° 0 mm 4 mps 754 mmHg 64%
    17:00 +10°C° 0 mm 4 mps 753 mmHg 67%
    18:00 +10°C° 0.2 mm 4 mps 753 mmHg 72%
    19:00 +8°C° 0.2 mm 4 mps 753 mmHg 77%
    20:00 +8°C° 0.2 mm 4 mps 753 mmHg 82%
    21:00 +7°C° 0.1 mm 4 mps 753 mmHg 83%
    22:00 +6°C° 0.1 mm 4 mps 753 mmHg 84%
    23:00 +6°C° 0.1 mm 4 mps 753 mmHg 86%

    Pasado mañana, 23 Octubre, Martes

    Tiempo Temperatura Precipitaciones Viento Presión Humedad
    00:00 +5°C° 0 mm 3 mps 753 mmHg 87%
    01:00 +4°C° 0 mm 3 mps 753 mmHg 89%
    02:00 +3°C° 0 mm 3 mps 753 mmHg 91%
    03:00 +3°C° 0 mm 3 mps 753 mmHg 90%
    04:00 +3°C° 0 mm 3 mps 752 mmHg 89%
    05:00 +3°C° 0 mm 3 mps 752 mmHg 88%
    06:00 +3°C° 0 mm 3 mps 752 mmHg 86%
    07:00 +3°C° 0 mm 3 mps 751 mmHg 85%
    08:00 +4°C° 0 mm 4 mps 751 mmHg 83%
    09:00 +5°C° 0 mm 4 mps 750 mmHg 79%
    10:00 +5°C° 0 mm 5 mps 749 mmHg 75%
    11:00 +5°C° 0 mm 6 mps 748 mmHg 71%
    12:00 +6°C° 0.1 mm 7 mps 747 mmHg 69%
    13:00 +6°C° 0.1 mm 7 mps 745 mmHg 67%
    14:00 +6°C° 0.1 mm 8 mps 744 mmHg 65%
    15:00 +5°C° 0.6 mm 8 mps 742 mmHg 69%
    16:00 +5°C° 0.6 mm 9 mps 741 mmHg 74%
    17:00 +3°C° 0.6 mm 9 mps 739 mmHg 78%
    18:00 +3°C° 1.2 mm 9 mps 737 mmHg 80%
    19:00 +5°C° 1.2 mm 9 mps 736 mmHg 82%
    20:00 +5°C° 1.2 mm 9 mps 734 mmHg 84%
    21:00 +5°C° 0.7 mm 8 mps 733 mmHg 85%
    22:00 +6°C° 0.7 mm 8 mps 732 mmHg 86%
    23:00 +8°C° 0.7 mm 7 mps 730 mmHg 87%

    24 Octubre, Miércoles

    Tiempo Temperatura Precipitaciones Viento Presión Humedad
    00:00 +6°C° 0.3 mm 7 mps 730 mmHg 86%
    01:00 +7°C° 0.3 mm 6 mps 729 mmHg 86%
    02:00 +5°C° 0.3 mm 6 mps 729 mmHg 85%
    03:00 +5°C° 0.6 mm 7 mps 729 mmHg 83%
    04:00 +5°C° 0.6 mm 7 mps 729 mmHg 80%
    05:00 +4°C° 0.6 mm 8 mps 730 mmHg 78%
    06:00 +3°C° 0.1 mm 7 mps 730 mmHg 75%
    07:00 +3°C° 0.1 mm 7 mps 731 mmHg 72%
    08:00 +2°C° 0.1 mm 7 mps 731 mmHg 68%
    09:00 +2°C° 0.7 mm 7 mps 731 mmHg 71%
    10:00 +3°C° 0.7 mm 7 mps 731 mmHg 73%
    11:00 +2°C° 0.7 mm 8 mps 731 mmHg 75%
    12:00 +4°C° 1.3 mm 8 mps 731 mmHg 77%
    13:00 +4°C° 1.3 mm 8 mps 731 mmHg 78%
    14:00 +5°C° 1.3 mm 8 mps 731 mmHg 79%
    15:00 +5°C° 0.6 mm 8 mps 732 mmHg 80%
    16:00 +5°C° 0.6 mm 7 mps 733 mmHg 80%
    17:00 +5°C° 0.6 mm 7 mps 734 mmHg 80%
    18:00 +5°C° 0.1 mm 7 mps 735 mmHg 79%
    19:00 +5°C° 0.1 mm 8 mps 736 mmHg 78%
    20:00 +5°C° 0.1 mm 9 mps 738 mmHg 77%
    21:00 +4°C° 0.1 mm 8 mps 738 mmHg 76%
    22:00 +4°C° 0.1 mm 8 mps 739 mmHg 75%
    23:00 +2°C° 0.1 mm 8 mps 739 mmHg 74%

    25 Octubre, Jueves

    Tiempo Temperatura Precipitaciones Viento Presión Humedad
    00:00 +2°C° 0 mm 8 mps 740 mmHg 75%
    01:00 +2°C° 0 mm 8 mps 740 mmHg 76%
    02:00 +2°C° 0 mm 7 mps 740 mmHg 77%
    03:00 +2°C° 0 mm 7 mps 741 mmHg 78%
    04:00 +2°C° 0 mm 6 mps 741 mmHg 80%
    05:00 +2°C° 0 mm 6 mps 741 mmHg 81%
    06:00 +2°C° 0 mm 6 mps 741 mmHg 82%
    07:00 +2°C° 0 mm 5 mps 741 mmHg 83%
    08:00 +1°C° 0 mm 5 mps 741 mmHg 83%
    09:00 +2°C° 0 mm 5 mps 741 mmHg 78%
    10:00 +3°C° 0 mm 5 mps 740 mmHg 72%
    11:00 +5°C° 0 mm 5 mps 740 mmHg 67%
    12:00 +5°C° 0.1 mm 5 mps 739 mmHg 69%
    13:00 +5°C° 0.1 mm 4 mps 739 mmHg 71%
    14:00 +5°C° 0.1 mm 4 mps 738 mmHg 73%
    15:00 +5°C° 0.1 mm 4 mps 738 mmHg 77%
    16:00 +5°C° 0.1 mm 3 mps 738 mmHg 81%
    17:00 +5°C° 0.1 mm 2 mps 738 mmHg 85%
    18:00 +4°C° 0 mm 3 mps 739 mmHg 87%
    19:00 +4°C° 0 mm 3 mps 739 mmHg 89%
    20:00 +4°C° 0 mm 3 mps 739 mmHg 91%
    21:00 +4°C° 0 mm 4 mps 739 mmHg 91%
    22:00 +4°C° 0 mm 4 mps 740 mmHg 91%
    23:00 +4°C° 0 mm 4 mps 740 mmHg 90%

    26 Octubre, Viernes

    Tiempo Temperatura Precipitaciones Viento Presión Humedad
    00:00 +4°C° 0 mm 4 mps 740 mmHg 89%
    01:00 +4°C° 0 mm 4 mps 740 mmHg 88%
    02:00 +3°C° 0 mm 5 mps 740 mmHg 87%
    03:00 +3°C° 0 mm 5 mps 741 mmHg 87%
    04:00 +3°C° 0 mm 4 mps 741 mmHg 87%
    05:00 +3°C° 0 mm 4 mps 741 mmHg 88%
    06:00 +3°C° 0 mm 4 mps 742 mmHg 88%
    07:00 +3°C° 0 mm 4 mps 742 mmHg 89%
    08:00 +3°C° 0 mm 3 mps 743 mmHg 90%
    09:00 +4°C° 0 mm 3 mps 743 mmHg 83%
    10:00 +6°C° 0 mm 4 mps 743 mmHg 76%
    11:00 +7°C° 0 mm 4 mps 744 mmHg 69%
    12:00 +8°C° 0 mm 4 mps 744 mmHg 67%
    13:00 +10°C° 0 mm 4 mps 744 mmHg 65%
    14:00 +10°C° 0 mm 4 mps 744 mmHg 63%
    15:00 +8°C° 0 mm 4 mps 744 mmHg 68%
    16:00 +9°C° 0 mm 3 mps 743 mmHg 72%
    17:00 +8°C° 0 mm 3 mps 743 mmHg 77%
    18:00 +8°C° 0 mm 3 mps 743 mmHg 79%
    19:00 +8°C° 0 mm 3 mps 743 mmHg 81%
    20:00 +6°C° 0 mm 4 mps 743 mmHg 83%
    21:00 +7°C° 0 mm 4 mps 742 mmHg 84%
    22:00 +7°C° 0 mm 5 mps 742 mmHg 86%
    23:00 +7°C° 0 mm 5 mps 742 mmHg 87%
    Mostrar más